^^
Station Historical Data
Daily Summary for February 8, 2019 Units:  English    Metric   Both
« Previous Day
Next Day »
Daily Weekly Monthly Yearly Custom
  High: Low: Average:
Temperature: -5.3 °F -26.5 °F -16.6 °F
Dew Point: -10.2 °F -31.5 °F -21.3 °F
Humidity: 92% 76% 78%
Wind Speed: 15.0mph 0.0mph 5.3mph
Wind Gust: 19.0mph - -
Wind- - SSW
Pressure: 30.77 in 30.53 in -
Precipitation: 0.00 in    
Historical Graphs
 
 
Tabular Data for February 8, 2019
Time Temperature Dew Point Pressure Wind Wind Speed Wind Gust Humidity Rainfall Rate (Hourly) solar Conditions
00:04 -18.9 °F -23.4 °F 30.53 in WNW 15.0 mph 16.0 mph 79% 0.00 in 0.00 W/m2
00:09 -18.9 °F -23.4 °F 30.53 in WNW 12.0 mph 16.0 mph 79% 0.00 in 0.00 W/m2
00:14 -18.9 °F -23.4 °F 30.53 in NW 14.0 mph 18.0 mph 79% 0.00 in 0.00 W/m2
00:19 -18.8 °F -23.3 °F 30.53 in NW 13.0 mph 18.0 mph 79% 0.00 in 0.00 W/m2
00:24 -18.9 °F -23.4 °F 30.53 in WNW 11.0 mph 18.0 mph 79% 0.00 in 0.00 W/m2
00:29 -19.0 °F -23.5 °F 30.53 in WNW 12.0 mph 17.0 mph 79% 0.00 in 0.00 W/m2
00:34 -19.0 °F -23.5 °F 30.53 in WNW 13.0 mph 17.0 mph 79% 0.00 in 0.00 W/m2
00:39 -19.1 °F -23.6 °F 30.53 in WNW 13.0 mph 17.0 mph 79% 0.00 in 0.00 W/m2
00:44 -19.1 °F -23.6 °F 30.53 in WNW 9.0 mph 19.0 mph 79% 0.00 in 0.00 W/m2
00:49 -19.1 °F -23.6 °F 30.54 in WNW 10.0 mph 19.0 mph 79% 0.00 in 0.00 W/m2
00:54 -19.2 °F -24.0 °F 30.54 in WNW 9.0 mph 17.0 mph 78% 0.00 in 0.00 W/m2
00:59 -19.3 °F -24.0 °F 30.54 in WNW 15.0 mph 17.0 mph 78% 0.00 in 0.00 W/m2
01:04 -19.5 °F -24.2 °F 30.55 in NW 11.0 mph 16.0 mph 78% 0.00 in 0.00 W/m2
01:09 -19.6 °F -24.3 °F 30.55 in WNW 9.0 mph 16.0 mph 78% 0.00 in 0.00 W/m2
01:14 -19.8 °F -24.5 °F 30.55 in West 10.0 mph 16.0 mph 78% 0.00 in 0.00 W/m2
01:19 -20.0 °F -24.7 °F 30.55 in WNW 7.0 mph 16.0 mph 78% 0.00 in 0.00 W/m2
01:24 -20.2 °F -24.9 °F 30.55 in WNW 9.0 mph 14.0 mph 78% 0.00 in 0.00 W/m2
01:29 -20.2 °F -24.9 °F 30.56 in WNW 10.0 mph 14.0 mph 78% 0.00 in 0.00 W/m2
01:34 -20.3 °F -25.0 °F 30.56 in WNW 8.0 mph 13.0 mph 78% 0.00 in 0.00 W/m2
01:39 -20.3 °F -25.0 °F 30.55 in WNW 9.0 mph 13.0 mph 78% 0.00 in 0.00 W/m2
01:44 -20.3 °F -24.8 °F 30.55 in WNW 9.0 mph 14.0 mph 79% 0.00 in 0.00 W/m2
01:49 -20.4 °F -24.9 °F 30.55 in WNW 11.0 mph 14.0 mph 79% 0.00 in 0.00 W/m2
01:54 -20.3 °F -24.8 °F 30.55 in WNW 10.0 mph 14.0 mph 79% 0.00 in 0.00 W/m2
01:59 -20.5 °F -25.0 °F 30.55 in NW 11.0 mph 14.0 mph 79% 0.00 in 0.00 W/m2
02:04 -20.7 °F -25.2 °F 30.55 in WNW 10.0 mph 15.0 mph 79% 0.00 in 0.00 W/m2
02:09 -20.7 °F -25.4 °F 30.55 in WNW 8.0 mph 15.0 mph 78% 0.00 in 0.00 W/m2
02:14 -20.8 °F -25.5 °F 30.56 in West 9.0 mph 13.0 mph 78% 0.00 in 0.00 W/m2
02:19 -21.1 °F -25.8 °F 30.56 in WNW 7.0 mph 14.0 mph 78% 0.00 in 0.00 W/m2
02:24 -21.1 °F -25.8 °F 30.56 in NW 9.0 mph 14.0 mph 78% 0.00 in 0.00 W/m2
02:29 -20.8 °F -22.4 °F 30.56 in WNW 8.0 mph 13.0 mph 92% 0.00 in 0.00 W/m2
02:34 -20.6 °F -25.1 °F 30.56 in NW 8.0 mph 14.0 mph 79% 0.00 in 0.00 W/m2
02:39 -20.7 °F -25.2 °F 30.56 in WNW 11.0 mph 14.0 mph 79% 0.00 in 0.00 W/m2
02:44 -20.7 °F -25.2 °F 30.57 in West 8.0 mph 14.0 mph 79% 0.00 in 0.00 W/m2
02:49 -20.7 °F -25.4 °F 30.57 in WNW 9.0 mph 12.0 mph 78% 0.00 in 0.00 W/m2
02:54 -20.9 °F -25.6 °F 30.57 in WNW 7.0 mph 12.0 mph 78% 0.00 in 0.00 W/m2
02:59 -20.9 °F -25.6 °F 30.57 in WNW 6.0 mph 11.0 mph 78% 0.00 in 0.00 W/m2
03:04 -21.3 °F -26.0 °F 30.58 in WNW 7.0 mph 10.0 mph 78% 0.00 in 0.00 W/m2
03:09 -21.9 °F -26.6 °F 30.58 in West 5.0 mph 10.0 mph 78% 0.00 in 0.00 W/m2
03:14 -22.5 °F -27.4 °F 30.58 in WNW 6.0 mph 8.0 mph 77% 0.00 in 0.00 W/m2
03:19 -22.3 °F -27.0 °F 30.58 in WNW 7.0 mph 8.0 mph 78% 0.00 in 0.00 W/m2
03:24 -22.2 °F -26.9 °F 30.58 in WNW 6.0 mph 8.0 mph 78% 0.00 in 0.00 W/m2
03:29 -22.4 °F -27.1 °F 30.58 in WNW 4.0 mph 8.0 mph 78% 0.00 in 0.00 W/m2
03:34 -22.6 °F -27.3 °F 30.58 in WNW 5.0 mph 8.0 mph 78% 0.00 in 0.00 W/m2
03:39 -22.8 °F -27.5 °F 30.58 in WNW 7.0 mph 8.0 mph 78% 0.00 in 0.00 W/m2
03:44 -22.9 °F -27.6 °F 30.58 in WNW 7.0 mph 8.0 mph 78% 0.00 in 0.00 W/m2
03:49 -23.2 °F -27.9 °F 30.58 in West 8.0 mph 8.0 mph 78% 0.00 in 0.00 W/m2
03:54 -23.5 °F -28.1 °F 30.58 in West 7.0 mph 9.0 mph 78% 0.00 in 0.00 W/m2
03:59 -23.8 °F -28.4 °F 30.59 in West 5.0 mph 9.0 mph 78% 0.00 in 0.00 W/m2
04:04 -23.9 °F -28.5 °F 30.59 in West 6.0 mph 7.0 mph 78% 0.00 in 0.00 W/m2
04:09 -23.8 °F -28.4 °F 30.59 in West 5.0 mph 7.0 mph 78% 0.00 in 0.00 W/m2
04:14 -23.9 °F -28.5 °F 30.59 in West 5.0 mph 7.0 mph 78% 0.00 in 0.00 W/m2
04:19 -24.1 °F -28.7 °F 30.59 in West 5.0 mph 7.0 mph 78% 0.00 in 0.00 W/m2
04:24 -24.0 °F -28.6 °F 30.58 in WNW 5.0 mph 8.0 mph 78% 0.00 in 0.00 W/m2
04:29 -23.5 °F -28.1 °F 30.58 in WNW 5.0 mph 8.0 mph 78% 0.00 in 0.00 W/m2
04:34 -23.7 °F -28.3 °F 30.58 in West 4.0 mph 8.0 mph 78% 0.00 in 0.00 W/m2
04:39 -24.1 °F -28.7 °F 30.59 in West 4.0 mph 7.0 mph 78% 0.00 in 0.00 W/m2
04:44 -24.2 °F -28.8 °F 30.59 in WNW 7.0 mph 7.0 mph 78% 0.00 in 0.00 W/m2
04:49 -23.5 °F -28.1 °F 30.59 in WNW 6.0 mph 9.0 mph 78% 0.00 in 0.00 W/m2
04:54 -23.4 °F -28.1 °F 30.59 in WNW 4.0 mph 9.0 mph 78% 0.00 in 0.00 W/m2
04:59 -23.6 °F -28.2 °F 30.59 in WNW 4.0 mph 8.0 mph 78% 0.00 in 0.00 W/m2
05:04 -23.5 °F -28.1 °F 30.60 in WNW 5.0 mph 7.0 mph 78% 0.00 in 0.00 W/m2
05:09 -23.6 °F -28.2 °F 30.60 in WNW 5.0 mph 6.0 mph 78% 0.00 in 0.00 W/m2
05:14 -23.7 °F -28.3 °F 30.60 in WNW 5.0 mph 6.0 mph 78% 0.00 in 0.00 W/m2
05:19 -23.7 °F -28.3 °F 30.60 in WNW 5.0 mph 6.0 mph 78% 0.00 in 0.00 W/m2
05:24 -23.5 °F -28.1 °F 30.60 in WNW 4.0 mph 6.0 mph 78% 0.00 in 0.00 W/m2
05:29 -23.4 °F -28.1 °F 30.60 in WNW 3.0 mph 6.0 mph 78% 0.00 in 0.00 W/m2
05:34 -23.8 °F -28.4 °F 30.60 in WNW 1.0 mph 5.0 mph 78% 0.00 in 0.00 W/m2
05:39 -24.2 °F -29.1 °F 30.61 in WNW 1.0 mph 4.0 mph 77% 0.00 in 0.00 W/m2
05:44 -24.4 °F -29.3 °F 30.61 in Calm   2.0 mph 77% 0.00 in 0.00 W/m2
05:49 -24.5 °F -29.4 °F 30.61 in WNW 2.0 mph 3.0 mph 77% 0.00 in 0.00 W/m2
05:54 -24.6 °F -29.5 °F 30.61 in WNW 3.0 mph 4.0 mph 77% 0.00 in 0.00 W/m2
05:59 -24.8 °F -29.7 °F 30.61 in WNW 2.0 mph 4.0 mph 77% 0.00 in 0.00 W/m2
06:04 -25.2 °F -30.0 °F 30.61 in WNW 4.0 mph 4.0 mph 77% 0.00 in 0.00 W/m2
06:09 -25.4 °F -30.2 °F 30.61 in WNW 2.0 mph 4.0 mph 77% 0.00 in 0.00 W/m2
06:14 -25.3 °F -30.1 °F 30.62 in WNW 3.0 mph 4.0 mph 77% 0.00 in 0.00 W/m2
06:19 -25.1 °F -29.9 °F 30.62 in WNW 3.0 mph 4.0 mph 77% 0.00 in 0.00 W/m2
06:24 -24.9 °F -29.5 °F 30.62 in WNW 2.0 mph 4.0 mph 78% 0.00 in 0.00 W/m2
06:29 -25.1 °F -29.9 °F 30.62 in WNW 2.0 mph 3.0 mph 77% 0.00 in 0.00 W/m2
06:34 -25.2 °F -30.0 °F 30.62 in WNW 2.0 mph 4.0 mph 77% 0.00 in 0.00 W/m2
06:39 -25.3 °F -30.1 °F 30.62 in WNW 2.0 mph 4.0 mph 77% 0.00 in 0.00 W/m2
06:44 -25.3 °F -30.1 °F 30.62 in WNW 2.0 mph 3.0 mph 77% 0.00 in 0.00 W/m2
06:49 -25.4 °F -30.2 °F 30.63 in Calm   3.0 mph 77% 0.00 in 0.00 W/m2
06:54 -25.6 °F -30.4 °F 30.63 in Calm   2.0 mph 77% 0.00 in 0.00 W/m2
06:59 -25.8 °F -30.6 °F 30.63 in WNW 1.0 mph 2.0 mph 77% 0.00 in 0.00 W/m2
07:04 -25.9 °F -30.7 °F 30.63 in WNW 1.0 mph 2.0 mph 77% 0.00 in 0.00 W/m2
07:09 -26.1 °F -30.9 °F 30.63 in Calm   2.0 mph 77% 0.00 in 0.00 W/m2
07:14 -26.5 °F -31.5 °F 30.64 in WNW 2.0 mph 2.0 mph 76% 0.00 in 0.00 W/m2
07:19 -26.4 °F -31.2 °F 30.64 in WNW 2.0 mph 3.0 mph 77% 0.00 in 0.00 W/m2
07:24 -26.3 °F -31.1 °F 30.64 in Calm   3.0 mph 77% 0.00 in 0.00 W/m2
07:29 -26.1 °F -30.9 °F 30.64 in Calm   2.0 mph 77% 0.00 in 0.00 W/m2
07:34 -25.9 °F -30.7 °F 30.64 in Calm   1.0 mph 77% 0.00 in 0.00 W/m2
07:39 -25.7 °F -30.5 °F 30.64 in Calm   1.0 mph 77% 0.00 in 0.00 W/m2
07:44 -25.5 °F -30.1 °F 30.64 in Calm   1.0 mph 78% 0.00 in 0.00 W/m2
07:49 -25.0 °F -29.6 °F 30.65 in WNW 2.0 mph 2.0 mph 78% 0.00 in 0.00 W/m2
07:54 -24.7 °F -29.3 °F 30.65 in WNW 2.0 mph 3.0 mph 78% 0.00 in 5.00 W/m2
07:59 -24.3 °F -28.9 °F 30.64 in WNW 2.0 mph 3.0 mph 78% 0.00 in 7.00 W/m2
08:04 -24.3 °F -28.9 °F 30.65 in WNW 1.0 mph 3.0 mph 78% 0.00 in 9.00 W/m2
08:09 -24.2 °F -28.8 °F 30.66 in Calm   3.0 mph 78% 0.00 in 11.00 W/m2
08:14 -24.2 °F -29.1 °F 30.66 in Calm   2.0 mph 77% 0.00 in 14.00 W/m2
08:19 -24.3 °F -29.2 °F 30.65 in Calm   1.0 mph 77% 0.00 in 16.00 W/m2
08:24 -24.4 °F -29.3 °F 30.66 in Calm   1.0 mph 77% 0.00 in 19.00 W/m2
08:29 -23.7 °F -28.3 °F 30.66 in Calm   1.0 mph 78% 0.00 in 21.00 W/m2
08:34 -23.3 °F -28.0 °F 30.65 in WNW 2.0 mph 3.0 mph 78% 0.00 in 28.00 W/m2
08:39 -22.7 °F -27.4 °F 30.66 in WNW 3.0 mph 4.0 mph 78% 0.00 in 40.00 W/m2
08:44 -22.3 °F -27.0 °F 30.66 in WNW 2.0 mph 4.0 mph 78% 0.00 in 53.00 W/m2
08:49 -22.2 °F -26.9 °F 30.66 in WNW 2.0 mph 3.0 mph 78% 0.00 in 63.00 W/m2
08:54 -22.1 °F -26.8 °F 30.67 in WNW 1.0 mph 3.0 mph 78% 0.00 in 72.00 W/m2
08:59 -22.1 °F -26.8 °F 30.67 in WNW 1.0 mph 3.0 mph 78% 0.00 in 81.00 W/m2
09:04 -21.8 °F -26.5 °F 30.67 in Calm   2.0 mph 78% 0.00 in 88.00 W/m2
09:09 -20.7 °F -25.4 °F 30.68 in WNW 1.0 mph 2.0 mph 78% 0.00 in 90.00 W/m2
09:14 -19.5 °F -24.0 °F 30.68 in Calm   2.0 mph 79% 0.00 in 93.00 W/m2
09:19 -19.4 °F -24.1 °F 30.69 in WNW 2.0 mph 2.0 mph 78% 0.00 in 113.00 W/m2
09:24 -20.6 °F -25.6 °F 30.69 in WNW 2.0 mph 4.0 mph 77% 0.00 in 130.00 W/m2
09:29 -21.4 °F -26.3 °F 30.69 in WNW 2.0 mph 4.0 mph 77% 0.00 in 144.00 W/m2
09:34 -21.6 °F -26.5 °F 30.70 in WNW 3.0 mph 5.0 mph 77% 0.00 in 155.00 W/m2
09:39 -21.6 °F -26.5 °F 30.69 in WNW 4.0 mph 5.0 mph 77% 0.00 in 165.00 W/m2
09:44 -21.7 °F -26.6 °F 30.69 in West 5.0 mph 6.0 mph 77% 0.00 in 181.00 W/m2
09:49 -21.9 °F -26.8 °F 30.70 in West 3.0 mph 6.0 mph 77% 0.00 in 204.00 W/m2
09:54 -21.9 °F -26.6 °F 30.70 in West 2.0 mph 5.0 mph 78% 0.00 in 229.00 W/m2
09:59 -21.5 °F -26.2 °F 30.70 in Calm   4.0 mph 78% 0.00 in 255.00 W/m2
10:04 -21.1 °F -25.8 °F 30.70 in West 2.0 mph 3.0 mph 78% 0.00 in 281.00 W/m2
10:09 -20.8 °F -25.5 °F 30.70 in West 1.0 mph 4.0 mph 78% 0.00 in 294.00 W/m2
10:14 -20.3 °F -25.0 °F 30.70 in West 2.0 mph 4.0 mph 78% 0.00 in 302.00 W/m2
10:19 -20.1 °F -24.8 °F 30.70 in West 2.0 mph 3.0 mph 78% 0.00 in 313.00 W/m2
10:24 -20.0 °F -24.7 °F 30.70 in West 3.0 mph 4.0 mph 78% 0.00 in 325.00 W/m2
10:29 -19.9 °F -24.6 °F 30.70 in West 3.0 mph 4.0 mph 78% 0.00 in 336.00 W/m2
10:34 -19.9 °F -24.6 °F 30.70 in West 3.0 mph 5.0 mph 78% 0.00 in 346.00 W/m2
10:39 -19.8 °F -24.5 °F 30.71 in West 5.0 mph 5.0 mph 78% 0.00 in 357.00 W/m2
10:44 -19.9 °F -24.6 °F 30.71 in West 2.0 mph 5.0 mph 78% 0.00 in 367.00 W/m2
10:49 -19.8 °F -24.5 °F 30.71 in West 3.0 mph 5.0 mph 78% 0.00 in 376.00 W/m2
10:54 -19.7 °F -24.4 °F 30.70 in West 1.0 mph 4.0 mph 78% 0.00 in 385.00 W/m2
10:59 -19.6 °F -24.3 °F 30.71 in West 2.0 mph 4.0 mph 78% 0.00 in 394.00 W/m2
11:04 -19.3 °F -24.0 °F 30.71 in West 2.0 mph 4.0 mph 78% 0.00 in 413.00 W/m2
11:09 -19.2 °F -24.0 °F 30.72 in West 4.0 mph 5.0 mph 78% 0.00 in 415.00 W/m2
11:14 -19.2 °F -24.0 °F 30.72 in West 6.0 mph 6.0 mph 78% 0.00 in 424.00 W/m2
11:19 -18.8 °F -23.6 °F 30.72 in West 3.0 mph 6.0 mph 78% 0.00 in 432.00 W/m2
11:24 -18.5 °F -23.3 °F 30.72 in West 2.0 mph 6.0 mph 78% 0.00 in 439.00 W/m2
11:29 -18.3 °F -22.8 °F 30.72 in West 3.0 mph 4.0 mph 79% 0.00 in 446.00 W/m2
11:34 -18.1 °F -22.9 °F 30.72 in West 2.0 mph 4.0 mph 78% 0.00 in 455.00 W/m2
11:39 -17.8 °F -22.6 °F 30.72 in West 3.0 mph 4.0 mph 78% 0.00 in 461.00 W/m2
11:44 -17.5 °F -22.1 °F 30.72 in WNW 3.0 mph 4.0 mph 79% 0.00 in 469.00 W/m2
11:49 -17.2 °F -21.8 °F 30.72 in WNW 3.0 mph 5.0 mph 79% 0.00 in 473.00 W/m2
11:54 -16.9 °F -21.5 °F 30.72 in West 2.0 mph 5.0 mph 79% 0.00 in 480.00 W/m2
11:59 -16.7 °F -21.3 °F 30.72 in WSW 2.0 mph 5.0 mph 79% 0.00 in 482.00 W/m2
12:04 -16.7 °F -21.3 °F 30.72 in WSW 2.0 mph 5.0 mph 79% 0.00 in 487.00 W/m2
12:09 -16.4 °F -21.0 °F 30.73 in WSW 2.0 mph 4.0 mph 79% 0.00 in 494.00 W/m2
12:14 -16.3 °F -20.9 °F 30.73 in WSW 3.0 mph 4.0 mph 79% 0.00 in 497.00 W/m2
12:19 -16.2 °F -21.0 °F 30.72 in West 2.0 mph 4.0 mph 78% 0.00 in 501.00 W/m2
12:24 -16.0 °F -20.6 °F 30.73 in West 2.0 mph 4.0 mph 79% 0.00 in 506.00 W/m2
12:29 -15.7 °F -20.3 °F 30.72 in West 3.0 mph 4.0 mph 79% 0.00 in 506.00 W/m2
12:34 -15.6 °F -20.2 °F 30.72 in West 2.0 mph 4.0 mph 79% 0.00 in 508.00 W/m2
12:39 -15.3 °F -19.9 °F 30.72 in West 2.0 mph 4.0 mph 79% 0.00 in 510.00 W/m2
12:44 -15.0 °F -19.6 °F 30.72 in West 1.0 mph 4.0 mph 79% 0.00 in 512.00 W/m2
12:49 -14.6 °F -19.2 °F 30.71 in West 2.0 mph 3.0 mph 79% 0.00 in 512.00 W/m2
12:54 -14.0 °F -18.6 °F 30.71 in Calm   3.0 mph 79% 0.00 in 513.00 W/m2
12:59 -13.2 °F -17.6 °F 30.71 in West 2.0 mph 3.0 mph 80% 0.00 in 517.00 W/m2
13:04 -13.4 °F -18.0 °F 30.72 in Calm   4.0 mph 79% 0.00 in 517.00 W/m2
13:09 -13.5 °F -18.1 °F 30.72 in WSW 3.0 mph 4.0 mph 79% 0.00 in 515.00 W/m2
13:14 -13.5 °F -18.1 °F 30.72 in WSW 2.0 mph 4.0 mph 79% 0.00 in 513.00 W/m2
13:19 -13.3 °F -17.9 °F 30.72 in Calm   4.0 mph 79% 0.00 in 512.00 W/m2
13:24 -12.9 °F -17.6 °F 30.72 in WSW 1.0 mph 3.0 mph 79% 0.00 in 510.00 W/m2
13:29 -12.4 °F -17.1 °F 30.71 in Calm   2.0 mph 79% 0.00 in 508.00 W/m2
13:34 -12.2 °F -16.9 °F 30.71 in WSW 2.0 mph 2.0 mph 79% 0.00 in 503.00 W/m2
13:39 -12.1 °F -16.8 °F 30.71 in WSW 1.0 mph 3.0 mph 79% 0.00 in 497.00 W/m2
13:44 -11.8 °F -16.5 °F 30.72 in Calm   3.0 mph 79% 0.00 in 494.00 W/m2
13:49 -11.5 °F -16.2 °F 30.71 in WSW 1.0 mph 3.0 mph 79% 0.00 in 496.00 W/m2
13:54 -11.3 °F -16.0 °F 30.71 in WSW 1.0 mph 3.0 mph 79% 0.00 in 492.00 W/m2
13:59 -11.1 °F -15.8 °F 30.71 in Calm   3.0 mph 79% 0.00 in 487.00 W/m2
14:04 -10.5 °F -15.2 °F 30.71 in Calm   2.0 mph 79% 0.00 in 482.00 W/m2
14:09 -9.9 °F -14.4 °F 30.71 in Calm     80% 0.00 in 475.00 W/m2
14:14 -9.4 °F -13.9 °F 30.71 in Calm     80% 0.00 in 469.00 W/m2
14:19 -8.7 °F -13.2 °F 30.71 in Calm     80% 0.00 in 464.00 W/m2
14:24 -8.2 °F -12.7 °F 30.71 in Calm     80% 0.00 in 459.00 W/m2
14:29 -8.0 °F -12.8 °F 30.71 in Calm     79% 0.00 in 454.00 W/m2
14:34 -8.3 °F -13.3 °F 30.71 in WSW 2.0 mph 3.0 mph 78% 0.00 in 443.00 W/m2
14:39 -8.5 °F -13.5 °F 30.72 in WSW 2.0 mph 3.0 mph 78% 0.00 in 436.00 W/m2
14:44 -8.5 °F -13.5 °F 30.72 in WSW 2.0 mph 3.0 mph 78% 0.00 in 427.00 W/m2
14:49 -8.3 °F -13.3 °F 30.72 in WSW 1.0 mph 3.0 mph 78% 0.00 in 422.00 W/m2
14:54 -7.5 °F -12.3 °F 30.71 in Calm   3.0 mph 79% 0.00 in 411.00 W/m2
14:59 -6.3 °F -10.9 °F 30.72 in SW 1.0 mph 3.0 mph 80% 0.00 in 403.00 W/m2
15:04 -5.4 °F -10.2 °F 30.71 in Calm   4.0 mph 79% 0.00 in 396.00 W/m2
15:09 -5.3 °F -10.4 °F 30.71 in SSE 3.0 mph 5.0 mph 78% 0.00 in 387.00 W/m2
15:14 -5.6 °F -10.7 °F 30.71 in ESE 4.0 mph 5.0 mph 78% 0.00 in 374.00 W/m2
15:19 -5.9 °F -11.2 °F 30.71 in East 2.0 mph 5.0 mph 77% 0.00 in 364.00 W/m2
15:24 -6.2 °F -11.5 °F 30.71 in ESE 4.0 mph 5.0 mph 77% 0.00 in 355.00 W/m2
15:29 -6.3 °F -11.4 °F 30.72 in SE 5.0 mph 6.0 mph 78% 0.00 in 346.00 W/m2
15:34 -6.4 °F -11.5 °F 30.71 in East 5.0 mph 8.0 mph 78% 0.00 in 336.00 W/m2
15:39 -6.2 °F -11.3 °F 30.71 in East 6.0 mph 8.0 mph 78% 0.00 in 325.00 W/m2
15:44 -6.4 °F -11.5 °F 30.72 in ESE 5.0 mph 8.0 mph 78% 0.00 in 313.00 W/m2
15:49 -6.6 °F -11.7 °F 30.72 in ESE 3.0 mph 7.0 mph 78% 0.00 in 297.00 W/m2
15:54 -6.4 °F -11.5 °F 30.71 in ESE 3.0 mph 7.0 mph 78% 0.00 in 283.00 W/m2
15:59 -6.6 °F -11.7 °F 30.72 in SE 7.0 mph 7.0 mph 78% 0.00 in 264.00 W/m2
16:04 -6.8 °F -11.9 °F 30.72 in SE 5.0 mph 8.0 mph 78% 0.00 in 241.00 W/m2
16:09 -7.2 °F -12.5 °F 30.72 in ESE 7.0 mph 8.0 mph 77% 0.00 in 227.00 W/m2
16:14 -7.4 °F -12.7 °F 30.72 in ESE 5.0 mph 9.0 mph 77% 0.00 in 209.00 W/m2
16:19 -7.6 °F -12.9 °F 30.72 in East 5.0 mph 9.0 mph 77% 0.00 in 179.00 W/m2
16:24 -7.8 °F -13.1 °F 30.72 in ESE 4.0 mph 8.0 mph 77% 0.00 in 179.00 W/m2
16:29 -7.9 °F -13.2 °F 30.72 in East 8.0 mph 9.0 mph 77% 0.00 in 146.00 W/m2
16:34 -7.9 °F -13.2 °F 30.71 in East 7.0 mph 9.0 mph 77% 0.00 in 155.00 W/m2
16:39 -7.9 °F -13.2 °F 30.71 in East 6.0 mph 8.0 mph 77% 0.00 in 146.00 W/m2
16:44 -7.8 °F -13.1 °F 30.71 in East 7.0 mph 8.0 mph 77% 0.00 in 149.00 W/m2
16:49 -7.9 °F -13.2 °F 30.72 in ESE 4.0 mph 8.0 mph 77% 0.00 in 137.00 W/m2
16:54 -8.2 °F -13.5 °F 30.71 in East 7.0 mph 8.0 mph 77% 0.00 in 121.00 W/m2
16:59 -8.2 °F -13.5 °F 30.71 in East 6.0 mph 9.0 mph 77% 0.00 in 107.00 W/m2
17:04 -8.4 °F -13.7 °F 30.71 in East 6.0 mph 9.0 mph 77% 0.00 in 84.00 W/m2
17:09 -8.4 °F -13.7 °F 30.71 in East 6.0 mph 7.0 mph 77% 0.00 in 67.00 W/m2
17:14 -8.6 °F -13.9 °F 30.71 in East 3.0 mph 9.0 mph 77% 0.00 in 51.00 W/m2
17:19 -9.0 °F -14.5 °F 30.71 in East 6.0 mph 9.0 mph 76% 0.00 in 35.00 W/m2
17:24 -9.6 °F -15.1 °F 30.70 in ENE 5.0 mph 9.0 mph 76% 0.00 in 21.00 W/m2
17:29 -10.5 °F -16.0 °F 30.70 in ENE 8.0 mph 10.0 mph 76% 0.00 in 18.00 W/m2
17:34 -11.2 °F -16.7 °F 30.70 in ENE 11.0 mph 11.0 mph 76% 0.00 in 16.00 W/m2
17:39 -11.6 °F -16.8 °F 30.70 in ENE 8.0 mph 12.0 mph 77% 0.00 in 14.00 W/m2
17:44 -12.0 °F -17.2 °F 30.70 in ENE 8.0 mph 12.0 mph 77% 0.00 in 12.00 W/m2
17:49 -12.3 °F -17.5 °F 30.70 in East 10.0 mph 10.0 mph 77% 0.00 in 9.00 W/m2
17:54 -12.6 °F -17.5 °F 30.70 in East 9.0 mph 12.0 mph 78% 0.00 in 5.00 W/m2
17:59 -13.0 °F -17.9 °F 30.70 in ENE 7.0 mph 13.0 mph 78% 0.00 in 0.00 W/m2
18:04 -13.2 °F -18.1 °F 30.70 in ENE 9.0 mph 13.0 mph 78% 0.00 in 0.00 W/m2
18:09 -13.2 °F -18.1 °F 30.70 in ENE 8.0 mph 11.0 mph 78% 0.00 in 0.00 W/m2
18:14 -13.3 °F -17.9 °F 30.70 in East 9.0 mph 11.0 mph 79% 0.00 in 0.00 W/m2
18:19 -13.3 °F -17.9 °F 30.70 in ENE 8.0 mph 11.0 mph 79% 0.00 in 0.00 W/m2
18:24 -13.3 °F -17.9 °F 30.71 in ENE 5.0 mph 11.0 mph 79% 0.00 in 0.00 W/m2
18:29 -13.3 °F -17.9 °F 30.71 in East 6.0 mph 10.0 mph 79% 0.00 in 0.00 W/m2
18:34 -13.4 °F -18.0 °F 30.71 in East 5.0 mph 9.0 mph 79% 0.00 in 0.00 W/m2
18:39 -13.4 °F -18.0 °F 30.71 in East 8.0 mph 14.0 mph 79% 0.00 in 0.00 W/m2
18:44 -13.6 °F -18.2 °F 30.71 in East 8.0 mph 14.0 mph 79% 0.00 in 0.00 W/m2
18:49 -14.0 °F -18.9 °F 30.72 in East 10.0 mph 14.0 mph 78% 0.00 in 0.00 W/m2
18:54 -14.1 °F -18.7 °F 30.72 in East 11.0 mph 11.0 mph 79% 0.00 in 0.00 W/m2
18:59 -14.0 °F -18.6 °F 30.73 in ESE 9.0 mph 11.0 mph 79% 0.00 in 0.00 W/m2
19:04 -13.8 °F -18.4 °F 30.73 in East 8.0 mph 14.0 mph 79% 0.00 in 0.00 W/m2
19:09 -13.6 °F -18.2 °F 30.73 in East 11.0 mph 14.0 mph 79% 0.00 in 0.00 W/m2
19:14 -13.3 °F -17.7 °F 30.73 in East 7.0 mph 13.0 mph 80% 0.00 in 0.00 W/m2
19:19 -13.2 °F -17.6 °F 30.74 in ESE 9.0 mph 11.0 mph 80% 0.00 in 0.00 W/m2
19:24 -13.0 °F -17.4 °F 30.74 in ESE 8.0 mph 13.0 mph 80% 0.00 in 0.00 W/m2
19:29 -13.0 °F -17.4 °F 30.74 in East 11.0 mph 13.0 mph 80% 0.00 in 0.00 W/m2
19:34 -13.0 °F -17.7 °F 30.74 in ESE 11.0 mph 14.0 mph 79% 0.00 in 0.00 W/m2
19:39 -13.0 °F -17.7 °F 30.74 in ESE 13.0 mph 14.0 mph 79% 0.00 in 0.00 W/m2
19:44 -13.0 °F -17.7 °F 30.74 in East 7.0 mph 14.0 mph 79% 0.00 in 0.00 W/m2
19:49 -13.1 °F -17.8 °F 30.74 in East 13.0 mph 14.0 mph 79% 0.00 in 0.00 W/m2
19:54 -13.2 °F -17.6 °F 30.75 in East 10.0 mph 15.0 mph 80% 0.00 in 0.00 W/m2
19:59 -13.2 °F -17.6 °F 30.74 in East 14.0 mph 16.0 mph 80% 0.00 in 0.00 W/m2
20:04 -13.2 °F -17.6 °F 30.75 in East 10.0 mph 16.0 mph 80% 0.00 in 0.00 W/m2
20:09 -13.1 °F -17.5 °F 30.75 in East 9.0 mph 14.0 mph 80% 0.00 in 0.00 W/m2
20:14 -12.9 °F -17.3 °F 30.75 in East 11.0 mph 13.0 mph 80% 0.00 in 0.00 W/m2
20:19 -12.9 °F -17.3 °F 30.75 in East 9.0 mph 14.0 mph 80% 0.00 in 0.00 W/m2
20:24 -13.0 °F -17.7 °F 30.75 in ESE 7.0 mph 14.0 mph 79% 0.00 in 0.00 W/m2
20:29 -12.9 °F -17.3 °F 30.75 in East 11.0 mph 14.0 mph 80% 0.00 in 0.00 W/m2
20:34 -12.9 °F -17.3 °F 30.75 in East 8.0 mph 13.0 mph 80% 0.00 in 0.00 W/m2
20:39 -12.9 °F -17.3 °F 30.75 in East 5.0 mph 13.0 mph 80% 0.00 in 0.00 W/m2
20:44 -12.9 °F -17.3 °F 30.74 in East 7.0 mph 13.0 mph 80% 0.00 in 0.00 W/m2
20:49 -12.9 °F -17.3 °F 30.75 in East 5.0 mph 13.0 mph 80% 0.00 in 0.00 W/m2
20:54 -13.0 °F -17.7 °F 30.75 in ESE 5.0 mph 10.0 mph 79% 0.00 in 0.00 W/m2
20:59 -12.9 °F -17.3 °F 30.75 in East 6.0 mph 10.0 mph 80% 0.00 in 0.00 W/m2
21:04 -12.8 °F -17.2 °F 30.75 in East 9.0 mph 9.0 mph 80% 0.00 in 0.00 W/m2
21:09 -12.6 °F -17.0 °F 30.75 in East 8.0 mph 13.0 mph 80% 0.00 in 0.00 W/m2
21:14 -12.6 °F -17.0 °F 30.74 in ENE 10.0 mph 13.0 mph 80% 0.00 in 0.00 W/m2
21:19 -12.6 °F -17.0 °F 30.75 in East 8.0 mph 14.0 mph 80% 0.00 in 0.00 W/m2
21:24 -12.7 °F -17.1 °F 30.75 in East 11.0 mph 14.0 mph 80% 0.00 in 0.00 W/m2
21:29 -12.8 °F -17.2 °F 30.75 in ENE 8.0 mph 14.0 mph 80% 0.00 in 0.00 W/m2
21:34 -12.8 °F -17.2 °F 30.75 in East 6.0 mph 14.0 mph 80% 0.00 in 0.00 W/m2
21:39 -12.6 °F -17.0 °F 30.75 in ESE 5.0 mph 11.0 mph 80% 0.00 in 0.00 W/m2
21:44 -12.4 °F -16.8 °F 30.75 in ESE 7.0 mph 11.0 mph 80% 0.00 in 0.00 W/m2
21:49 -12.1 °F -16.5 °F 30.75 in ESE 9.0 mph 13.0 mph 80% 0.00 in 0.00 W/m2
21:54 -12.0 °F -16.4 °F 30.75 in East 9.0 mph 15.0 mph 80% 0.00 in 0.00 W/m2
21:59 -11.9 °F -16.3 °F 30.76 in East 8.0 mph 15.0 mph 80% 0.00 in 0.00 W/m2
22:04 -11.8 °F -16.2 °F 30.76 in East 10.0 mph 13.0 mph 80% 0.00 in 0.00 W/m2
22:09 -11.7 °F -16.1 °F 30.76 in East 9.0 mph 13.0 mph 80% 0.00 in 0.00 W/m2
22:14 -11.7 °F -16.1 °F 30.76 in East 11.0 mph 13.0 mph 80% 0.00 in 0.00 W/m2
22:19 -11.6 °F -16.0 °F 30.76 in East 7.0 mph 13.0 mph 80% 0.00 in 0.00 W/m2
22:24 -11.5 °F -15.9 °F 30.76 in East 9.0 mph 13.0 mph 80% 0.00 in 0.00 W/m2
22:29 -11.4 °F -15.8 °F 30.76 in East 5.0 mph 13.0 mph 80% 0.00 in 0.00 W/m2
22:34 -11.3 °F -15.7 °F 30.76 in East 8.0 mph 11.0 mph 80% 0.00 in 0.00 W/m2
22:39 -11.2 °F -15.7 °F 30.76 in ESE 9.0 mph 13.0 mph 80% 0.00 in 0.00 W/m2
22:44 -11.1 °F -15.6 °F 30.77 in East 8.0 mph 13.0 mph 80% 0.00 in 0.00 W/m2
22:49 -10.9 °F -15.4 °F 30.77 in East 10.0 mph 10.0 mph 80% 0.00 in 0.00 W/m2
22:54 -10.7 °F -15.2 °F 30.77 in ESE 4.0 mph 12.0 mph 80% 0.00 in 0.00 W/m2
22:59 -10.6 °F -15.1 °F 30.77 in ESE 8.0 mph 13.0 mph 80% 0.00 in 0.00 W/m2
23:04 -10.5 °F -15.2 °F 30.77 in ESE 8.0 mph 13.0 mph 79% 0.00 in 0.00 W/m2
23:09 -10.4 °F -15.1 °F 30.77 in East 7.0 mph 12.0 mph 79% 0.00 in 0.00 W/m2
23:14 -10.3 °F -15.0 °F 30.77 in East 10.0 mph 15.0 mph 79% 0.00 in 0.00 W/m2
23:19 -10.3 °F -15.0 °F 30.76 in East 10.0 mph 15.0 mph 79% 0.00 in 0.00 W/m2
23:24 -10.2 °F -14.9 °F 30.76 in East 10.0 mph 15.0 mph 79% 0.00 in 0.00 W/m2
23:29 -10.2 °F -14.9 °F 30.76 in East 10.0 mph 15.0 mph 79% 0.00 in 0.00 W/m2
23:34 -10.1 °F -14.8 °F 30.76 in East 7.0 mph 14.0 mph 79% 0.00 in 0.00 W/m2
23:39 -10.0 °F -14.7 °F 30.76 in ENE 10.0 mph 14.0 mph 79% 0.00 in 0.00 W/m2
23:44 -9.8 °F -14.5 °F 30.76 in ENE 11.0 mph 14.0 mph 79% 0.00 in 0.00 W/m2
23:49 -9.7 °F -14.4 °F 30.75 in East 9.0 mph 16.0 mph 79% 0.00 in 0.00 W/m2
23:54 -9.5 °F -14.2 °F 30.76 in East 7.0 mph 16.0 mph 79% 0.00 in 0.00 W/m2
23:59 -9.5 °F -14.2 °F 30.76 in East 11.0 mph 16.0 mph 79% 0.00 in 0.00 W/m2
Bismarck, North Dakota, USA
Compliments of Weather Underground - 4 mb